Theta_e
309 308 308 308 307 307 307 307 307 305 305 300 298 300 300 300 297 309 313 317 308 297 287 291 290 291 295 300 300 300 299 297 298 295 296 293 295 292 291 291 288 290 289 289 288 289 284 287 284 287 288 290 294 297 299 299 296 293 286 291 293 298 284 283 285 288 290 294 294 295 296 294 291 293 294 291 286 286 283 281 282 280 281 277 273 272 277
309 309 308 308 307 307 307 307 307 306 305 300 299 297 297 298 298 303 310 312 306 298 287 287 287 292 297 297 296 300 299 297 295 295 295 292 293 291 290 292 294 289 292 290 288 290 280 287 287 284 288 288 298 296 296 298 293 293 290 287 293 286 285 284 281 282 283 285 290 290 294 294 288 288 291 292 292 291 290 288 288 279 280 281 275 271 275
309 309 308 308 307 307 307 307 307 306 306 304 297 296 297 296 301 302 305 306 303 294 293 290 287 290 292 293 292 294 296 299 298 297 296 297 291 290 290 292 293 291 292 291 292 292 288 282 287 289 290 290 295 295 295 296 295 300 302 301 295 287 283 282 280 277 275 276 277 279 282 285 288 291 291 292 291 289 286 282 283 278 282 284 277 275 283
309 309 308 308 307 307 307 307 306 306 306 305 298 297 297 298 288 294 296 298 299 297 298 296 293 288 289 286 291 294 291 296 299 299 298 299 298 293 294 293 294 291 291 288 289 289 292 287 285 287 286 289 293 296 295 295 296 302 305 301 294 284 285 282 283 282 281 283 285 289 291 287 284 288 289 289 292 291 288 287 283 280 283 282 283 284 285
309 309 308 308 307 307 307 307 306 305 305 305 300 299 298 298 292 290 287 295 293 294 294 295 294 290 294 287 293 290 292 294 295 300 293 298 296 293 293 294 291 291 289 286 286 289 288 290 288 288 288 290 292 295 294 295 301 305 303 300 290 283 281 283 282 284 286 288 288 288 290 286 287 287 287 290 289 289 288 284 282 287 283 278 286 287 285
309 309 308 308 308 307 307 307 306 306 305 305 300 299 300 290 292 296 297 291 286 289 289 296 295 296 297 291 294 291 291 292 288 296 299 298 297 288 290 292 295 291 289 288 282 285 286 287 282 288 290 290 291 290 293 292 302 303 298 300 290 284 282 283 284 285 288 288 288 290 289 289 289 289 288 287 289 288 285 286 286 286 283 280 286 287 285
309 309 308 308 308 307 307 307 307 306 305 304 302 295 296 296 295 298 300 290 291 293 296 298 296 294 295 290 293 290 290 290 293 293 292 294 294 295 285 289 292 291 291 289 284 285 282 279 285 286 285 287 287 285 288 294 301 297 295 293 291 287 283 284 285 286 288 289 290 291 289 290 290 289 289 289 289 288 288 287 288 287 286 287 287 287 286
309 309 308 308 308 308 307 307 307 306 304 304 302 298 295 292 292 291 296 295 294 294 294 295 295 292 297 287 292 293 291 290 293 295 293 286 291 297 290 291 292 291 290 289 285 286 287 287 284 288 288 287 288 286 288 287 292 296 293 293 292 289 284 290 287 284 286 288 288 290 289 289 287 288 289 289 289 289 288 288 288 289 288 288 287 286 286
309 309 308 308 308 308 307 307 307 306 305 304 301 299 298 297 298 300 295 291 292 295 294 293 292 286 289 289 292 293 293 292 294 294 296 293 291 293 292 294 293 292 291 289 288 291 291 290 290 291 289 285 291 288 288 293 290 294 291 292 292 290 283 286 285 283 284 288 287 286 288 290 288 286 287 288 287 285 286 284 287 285 284 285 286 284 284
309 308 308 308 308 308 307 307 307 305 304 302 299 296 298 299 300 301 296 288 294 291 293 292 288 285 293 295 294 293 293 294 295 287 293 297 297 296 296 295 293 291 289 288 290 292 293 294 294 294 293 294 293 293 293 293 291 290 290 291 289 289 285 283 282 283 283 287 287 286 286 286 283 284 287 289 289 290 289 291 291 289 287 284 282 283 288
309 309 308 308 308 308 307 307 307 306 302 298 296 297 297 296 295 295 293 288 286 291 291 289 290 295 296 296 294 296 294 295 295 289 286 296 297 299 297 294 292 289 288 292 296 297 297 297 296 295 294 293 292 293 293 294 293 293 292 291 287 289 287 284 285 283 283 286 285 285 282 277 279 289 293 292 289 289 286 286 289 291 290 286 287 287 290
309 309 308 308 308 307 307 307 307 307 304 298 299 297 299 300 297 296 288 286 285 290 290 288 291 293 293 294 295 294 294 294 294 297 292 293 295 297 296 295 293 283 293 297 296 294 295 296 295 294 294 293 293 293 293 292 294 296 297 292 287 287 286 283 285 284 283 283 282 276 275 277 288 291 293 294 293 293 290 290 292 292 292 290 290 290 291
308 308 308 308 308 307 307 307 307 307 306 301 299 297 300 302 298 295 293 289 284 288 288 290 293 294 294 294 294 294 295 296 296 295 295 293 293 295 296 295 293 295 298 296 296 294 290 288 290 290 291 296 297 298 296 295 295 298 296 295 289 283 283 280 282 281 280 278 276 271 274 282 286 291 292 295 295 294 291 289 292 293 292 294 290 290 293
308 308 308 308 308 307 307 307 307 307 307 304 298 297 299 300 296 292 291 284 287 290 291 290 290 292 293 293 293 294 295 295 295 295 292 295 294 294 297 299 299 300 299 297 293 291 285 283 282 283 286 286 284 286 293 295 297 296 296 296 295 290 285 285 283 284 278 277 277 276 284 283 285 285 287 290 288 290 287 283 287 294 295 294 293 293 294
308 308 308 308 308 307 307 306 307 307 307 306 299 298 299 300 298 294 295 291 285 287 290 285 289 292 292 293 293 292 292 292 291 290 295 297 294 297 297 300 301 300 299 293 287 287 285 283 279 279 279 280 276 279 291 288 295 297 296 295 294 293 288 284 283 281 282 279 274 274 272 270 277 284 291 294 294 294 294 290 286 295 295 297 295 294 294
308 308 308 308 308 308 307 306 306 307 306 306 299 298 299 302 301 299 296 290 287 283 287 295 296 294 291 291 293 292 289 287 288 290 290 291 294 297 299 300 301 300 297 294 289 286 282 282 278 277 277 279 285 284 279 286 287 292 295 294 294 294 292 288 283 281 278 278 277 277 272 272 279 286 290 294 295 294 294 288 284 293 296 297 297 295 296
308 308 308 308 308 307 307 307 306 306 306 306 299 299 298 303 300 297 293 292 290 287 293 297 297 294 291 290 291 289 291 288 291 287 285 288 292 295 297 300 300 297 295 288 286 283 281 279 281 280 280 286 282 282 285 283 281 282 289 293 292 287 282 280 280 277 278 278 276 273 275 278 284 289 291 294 295 294 291 280 281 292 296 297 297 295 296
308 308 308 308 307 307 307 307 306 306 306 306 302 299 299 302 302 300 295 292 289 287 292 298 295 290 288 290 291 294 296 296 295 296 290 291 293 293 295 296 293 296 297 286 284 280 279 279 280 279 278 286 288 287 276 283 281 280 282 285 283 282 280 280 281 279 278 278 275 274 277 283 286 289 292 294 296 293 282 278 285 295 297 298 298 297 298
308 307 307 307 307 307 307 307 307 306 307 306 304 301 301 303 305 302 299 296 294 288 294 300 300 296 298 300 297 297 298 297 295 289 286 287 291 296 296 296 297 286 292 285 283 281 281 279 283 282 280 279 286 280 284 282 281 285 286 280 279 279 282 280 278 279 278 275 276 274 276 285 290 292 293 296 291 282 280 290 297 297 297 298 298 298 299
308 307 307 307 307 307 307 307 307 307 307 307 303 298 301 304 305 306 300 295 296 294 297 298 299 296 299 296 292 293 295 295 295 292 290 287 295 296 290 284 289 291 287 284 279 283 281 279 281 284 279 279 281 287 282 283 289 285 284 286 280 282 281 279 279 280 278 274 272 272 270 282 290 292 289 293 285 285 293 296 297 298 298 297 298 299 299
307 307 307 307 306 307 307 307 307 307 307 307 305 300 298 302 305 307 306 301 296 290 292 300 300 298 299 297 298 298 296 292 293 291 293 293 296 292 284 283 285 288 284 286 282 281 282 279 280 282 283 284 284 284 280 280 282 290 290 286 284 291 282 280 279 285 280 278 273 274 279 286 290 291 284 290 292 295 297 297 295 297 298 298 298 299 299
307 307 307 307 306 307 307 307 307 307 307 308 306 302 298 302 306 308 308 304 297 292 293 297 299 299 301 302 302 301 300 299 300 300 294 290 293 292 289 291 291 290 292 291 284 283 283 284 284 279 278 279 283 278 283 278 277 287 292 288 282 290 284 283 282 284 282 280 281 285 288 290 292 292 292 293 295 295 296 295 295 295 297 299 298 298 299
307 307 307 307 307 307 307 308 307 307 307 308 306 302 298 302 304 308 305 299 301 301 302 300 300 300 301 302 304 304 304 304 303 301 299 294 287 290 293 291 290 295 296 293 286 285 284 283 279 284 281 280 280 280 282 282 282 284 283 289 288 294 294 290 288 286 290 294 293 292 291 292 292 292 293 293 294 295 295 295 295 296 297 300 299 299 299
307 307 307 307 307 307 307 307 307 307 307 308 307 302 300 302 304 304 302 299 295 289 293 296 292 287 294 297 302 303 304 303 303 303 304 301 289 286 291 294 296 295 293 294 292 290 285 284 286 286 281 282 286 281 279 278 278 284 284 282 289 294 294 291 286 288 288 285 293 290 291 291 290 291 293 293 293 294 295 295 295 296 298 299 300 300 299
307 307 307 306 307 307 307 307 307 307 307 307 307 307 305 303 304 303 299 290 289 289 288 288 289 298 301 303 303 302 304 305 306 304 303 302 299 294 292 295 298 294 291 292 294 288 284 286 285 284 280 285 287 281 285 282 283 288 283 281 285 288 296 290 288 286 283 282 289 291 292 292 292 292 291 292 293 295 295 295 296 297 298 298 299 300 299
307 307 306 306 306 307 307 307 307 307 307 307 307 304 302 301 304 305 302 300 298 294 287 286 293 302 301 300 299 302 305 304 303 303 303 303 303 301 300 299 298 299 295 295 293 289 285 284 284 282 282 284 290 283 282 287 287 289 286 285 289 291 294 282 287 286 287 289 288 289 289 289 290 291 292 293 293 294 295 295 295 296 297 297 299 299 299
307 306 306 306 306 307 307 307 307 307 307 307 306 306 304 304 306 303 300 299 293 288 288 286 291 296 300 297 301 303 303 302 302 301 302 302 302 303 302 300 298 296 295 292 290 286 285 284 282 283 285 283 288 288 288 287 286 284 283 288 293 290 285 287 284 279 276 281 285 289 283 282 288 291 292 293 294 294 294 294 295 295 296 297 297 297 299
306 306 307 307 307 307 307 307 307 306 306 307 307 306 306 304 305 305 305 303 298 290 288 287 290 294 299 297 301 301 301 302 301 300 301 302 302 302 302 301 298 295 292 292 286 287 284 284 285 283 284 287 288 285 289 288 288 285 285 287 291 287 286 284 279 280 279 284 289 290 289 288 290 292 293 293 294 294 293 293 294 295 296 296 296 296 298
306 306 307 307 307 307 307 307 307 306 306 306 305 304 304 306 307 307 306 306 303 297 291 291 294 292 288 293 300 298 300 300 300 300 300 301 301 301 301 300 298 296 294 288 283 282 283 283 283 285 285 290 289 284 286 282 281 281 285 291 293 291 291 290 288 287 288 290 290 290 290 289 291 293 293 293 294 294 293 294 294 295 295 296 295 296 296
306 307 307 307 307 307 307 307 307 306 306 305 303 299 294 295 305 305 306 306 304 300 290 287 285 288 296 296 295 298 298 299 299 300 300 299 299 299 300 299 297 297 294 288 286 285 283 285 283 288 292 294 288 283 283 281 282 284 288 292 295 294 293 293 292 290 289 292 292 292 292 292 293 293 293 293 294 295 294 294 294 295 296 296 295 295 296
306 306 307 307 307 307 307 307 307 306 306 303 300 291 289 288 296 306 306 306 305 299 288 288 287 290 289 295 295 294 297 299 299 300 300 301 300 300 300 300 296 297 289 288 287 286 283 284 283 286 291 293 289 284 283 282 281 283 288 293 294 293 293 294 293 293 292 292 293 293 293 293 292 292 292 293 293 293 292 293 295 298 298 296 294 294 295
306 306 307 307 306 307 307 307 306 306 305 302 298 294 293 296 302 306 307 306 304 297 288 286 286 286 285 289 296 300 299 299 299 300 300 302 299 300 298 299 294 297 292 287 285 286 285 283 286 288 289 292 292 285 286 283 283 284 288 292 294 294 294 293 292 292 294 294 291 290 289 290 290 290 289 291 292 293 292 292 293 294 296 295 294 295 295
306 306 306 306 306 306 307 307 307 306 303 305 306 305 304 304 305 307 307 305 301 293 293 287 285 286 284 288 295 297 299 299 299 300 297 300 298 298 295 297 296 296 300 291 286 286 286 286 284 286 291 293 285 283 286 284 285 289 291 295 295 296 293 293 294 295 293 292 291 287 287 288 290 291 292 292 292 292 292 292 293 293 293 293 293 293 293
306 306 306 306 306 307 307 307 307 306 306 303 298 301 304 305 307 306 306 303 297 295 290 286 284 284 284 292 288 295 301 294 293 297 289 298 300 296 290 294 294 289 291 290 286 288 287 287 286 285 288 285 287 284 283 286 289 290 292 294 296 293 293 294 294 293 293 292 292 291 290 290 291 291 291 291 291 292 293 292 292 291 291 291 291 292 292
306 306 306 306 306 307 307 306 304 302 298 299 300 303 305 306 306 307 305 299 290 287 287 287 287 283 284 284 284 290 301 296 291 297 291 293 300 295 295 289 290 288 287 297 287 285 285 287 289 285 285 285 284 283 284 287 288 291 292 294 294 292 292 292 293 292 291 291 292 291 291 291 290 289 289 290 290 291 291 291 291 290 290 290 291 291 291
306 306 306 306 306 306 305 304 303 300 297 297 299 306 306 307 307 306 305 304 297 288 285 286 286 283 285 282 282 287 301 294 297 297 297 294 295 299 296 290 287 290 295 292 285 287 286 290 289 284 284 283 283 285 288 290 290 292 293 294 294 292 292 291 291 291 291 291 292 292 291 290 290 290 289 290 290 290 290 290 290 290 289 290 290 290 291
305 305 306 306 305 302 297 295 301 301 299 303 304 307 307 306 305 304 301 299 300 300 290 286 284 285 286 284 286 287 296 285 294 291 292 291 288 288 292 288 287 288 289 287 286 285 289 293 288 284 283 283 286 290 291 291 291 292 293 294 293 292 291 291 292 290 290 291 292 290 289 289 289 288 289 289 289 289 290 289 289 289 288 289 290 290 290
305 306 304 300 298 290 290 292 299 304 307 305 305 300 297 297 288 289 290 289 291 296 289 291 286 289 291 288 284 295 293 286 292 287 285 288 289 289 288 289 287 288 284 284 289 295 288 287 285 286 286 291 292 292 291 293 294 295 295 293 292 292 292 291 291 290 288 287 287 287 288 287 287 287 288 288 288 289 288 288 289 289 289 289 290 291 291
304 302 300 299 293 288 289 294 306 306 304 303 300 290 287 289 286 286 285 287 288 286 288 288 286 290 289 287 288 296 293 287 284 287 285 291 288 286 289 286 288 288 284 284 287 296 285 284 285 285 285 289 289 291 293 293 292 293 293 293 293 292 292 291 291 290 288 286 286 287 287 286 287 287 287 287 288 289 288 289 289 289 290 290 289 290 290
300 296 292 293 291 292 302 305 306 302 297 289 289 288 284 286 285 283 287 284 283 286 288 284 290 290 290 288 287 287 295 290 284 283 285 288 296 287 287 287 287 286 282 283 284 292 284 281 284 284 284 286 289 291 293 293 292 292 293 293 293 292 292 292 291 291 289 288 290 290 289 290 290 289 288 288 288 287 288 288 288 289 290 290 288 288 288
299 297 295 290 296 299 300 301 299 295 288 286 286 285 285 283 284 285 285 283 283 284 288 286 288 287 290 290 289 285 294 295 294 294 291 286 293 293 286 285 287 284 281 281 284 286 284 282 282 283 283 286 290 292 293 292 292 292 292 293 293 292 291 292 292 292 292 291 291 291 291 291 290 290 290 289 289 287 288 288 288 289 290 290 289 288 289
300 299 299 301 300 300 298 294 289 286 286 286 284 282 284 285 286 284 285 282 283 285 287 288 285 286 287 289 289 289 288 295 292 289 287 285 289 288 286 287 288 284 281 283 285 284 283 279 279 280 283 288 293 293 292 291 292 292 292 292 292 291 291 292 292 292 293 292 291 291 290 290 290 290 290 289 289 288 288 287 288 288 289 289 289 289 288
303 302 300 295 291 289 289 286 288 287 283 282 281 281 284 281 283 282 283 285 289 288 287 294 291 293 294 294 290 293 289 294 289 287 287 286 289 290 286 285 285 282 284 286 286 282 280 278 277 280 285 290 293 293 293 293 292 292 292 291 291 291 292 291 291 291 292 292 291 290 290 290 290 290 290 290 288 288 288 288 289 289 288 288 288 287 287
299 297 291 288 287 286 288 282 287 284 282 284 282 279 281 280 283 283 282 283 286 286 290 287 288 290 286 292 289 287 289 292 292 289 288 289 287 286 286 283 283 285 288 285 282 280 280 281 283 282 288 292 294 293 292 292 292 291 291 291 291 291 292 291 291 291 291 291 291 291 291 290 290 290 290 289 288 287 287 287 288 288 288 287 286 286 286
291 286 286 285 284 286 285 280 287 283 280 282 283 282 283 282 284 284 284 288 290 287 290 290 290 290 288 293 293 291 289 287 290 288 285 288 285 286 284 283 285 285 285 282 282 281 281 282 285 289 290 292 293 293 293 292 292 292 291 291 291 291 291 291 290 291 291 290 290 290 290 289 290 289 289 288 288 288 288 287 287 287 287 286 285 286 285
288 286 285 284 281 283 283 282 282 279 284 285 283 284 285 286 287 287 291 292 289 290 289 291 292 292 289 293 288 287 289 287 286 287 287 287 284 283 286 288 287 283 282 282 280 280 281 283 283 287 292 293 293 293 292 292 292 292 292 291 291 291 291 290 290 290 290 290 290 289 289 289 289 288 288 288 289 288 287 286 286 287 286 285 285 285 285
287 287 285 286 284 284 284 281 282 283 285 285 287 288 289 290 291 291 292 292 291 292 293 294 294 294 290 289 289 288 289 288 287 287 288 284 283 285 288 285 282 282 279 278 279 280 282 283 286 289 292 292 293 292 292 292 292 292 292 292 291 291 290 290 290 289 289 289 289 289 289 288 287 287 287 288 288 287 287 287 287 286 286 286 286 285 284
285 287 286 283 283 284 281 282 288 288 288 288 289 290 291 292 291 290 293 293 294 295 294 293 291 292 291 293 293 287 287 288 286 286 287 285 287 284 283 283 282 283 283 281 280 282 283 284 289 291 291 293 293 292 292 292 292 291 291 291 291 290 290 290 289 289 289 289 288 288 287 286 287 286 287 287 286 286 287 287 287 286 286 286 286 285 284
287 286 284 284 285 283 283 286 287 285 287 289 290 290 290 290 289 291 293 295 295 294 296 294 288 288 286 288 287 286 285 287 284 285 286 285 282 280 281 278 279 279 283 284 283 283 284 287 290 291 292 292 293 293 292 292 292 291 291 291 291 291 290 289 288 288 288 288 288 288 287 287 287 287 286 286 286 286 286 286 287 286 285 285 285 284 284
285 285 285 283 284 285 287 288 286 284 286 288 288 289 291 290 291 293 296 295 295 295 293 291 289 288 287 287 285 285 285 287 286 287 284 282 283 283 280 278 281 281 283 285 286 287 288 289 291 291 291 292 292 293 292 291 290 291 291 291 291 290 290 289 288 288 288 288 288 288 287 287 286 286 286 286 286 286 286 286 285 285 285 284 284 284 284
285 285 285 288 285 284 286 283 284 283 284 286 288 289 291 291 293 293 296 295 294 291 288 287 287 286 286 285 284 282 284 287 285 284 284 284 285 282 280 281 282 284 283 286 288 290 291 291 292 291 292 292 292 293 293 292 291 291 291 291 291 290 289 289 289 289 288 289 288 286 287 287 287 286 286 286 286 285 285 285 285 285 285 284 283 284 284
284 283 283 285 288 288 289 289 288 289 291 292 290 292 293 292 293 295 297 296 293 289 287 287 286 285 284 282 284 286 287 285 284 284 283 285 286 283 283 283 282 283 286 288 291 291 292 292 292 292 292 292 292 292 292 291 291 291 291 291 291 290 289 288 288 288 288 288 288 287 287 286 286 286 285 285 285 284 283 283 284 284 284 283 283 284 285
Wind_Speed
14 16 16 16 17 17 18 19 19 20 22 8 8 4 3 4 2 6 7 5 4 6 3 3 4 2 1 4 1 4 1 1 2 0 1 0 1 1 1 1 1 2 1 1 1 3 2 3 1 4 3 4 4 6 7 6 4 1 0 3 1 1 1 2 8 8 9 4 3 2 2 2 1 1 1 3 3 4 5 4 2 1 3 3 2 2 9
14 14 15 15 16 17 17 18 17 16 15 5 6 3 2 1 2 6 5 4 6 9 2 3 6 2 4 4 3 5 3 5 5 1 2 1 0 1 1 2 3 2 2 1 2 3 3 3 6 4 2 4 7 9 8 10 3 1 2 2 1 1 1 1 7 6 3 1 3 0 3 5 2 5 7 6 7 6 7 6 1 2 4 7 2 8 7
13 14 15 15 16 16 17 16 15 14 12 7 1 2 2 3 3 3 6 7 7 4 2 2 0 2 3 3 5 6 3 4 3 2 3 1 1 1 1 3 1 1 1 0 1 1 2 3 3 2 3 4 4 6 9 10 4 1 4 4 3 1 2 1 6 10 13 13 10 10 9 9 7 4 10 9 12 10 4 2 2 3 2 3 2 6 7
13 13 14 14 15 15 16 16 15 14 12 9 0 1 1 3 2 5 6 5 6 3 1 3 1 1 2 3 1 1 3 3 5 5 2 4 4 3 1 2 1 0 1 1 1 2 1 1 3 4 3 3 2 3 9 9 4 3 5 5 3 1 0 2 3 2 7 8 8 8 4 5 4 10 11 12 10 6 2 3 3 2 3 5 4 6 14
12 13 13 14 14 15 16 16 16 15 14 9 2 0 2 0 2 2 5 6 4 2 2 4 3 3 1 1 0 4 3 3 2 5 1 5 3 3 1 0 2 2 2 1 2 3 3 3 3 4 4 4 4 6 8 9 5 5 3 5 3 2 2 5 6 8 10 10 12 9 7 6 5 9 12 11 11 10 7 5 4 6 4 4 2 10 11
12 12 13 13 13 14 16 17 17 17 17 7 3 1 0 2 1 2 1 2 4 6 6 6 6 5 1 1 1 1 4 5 4 3 1 3 1 3 3 2 1 1 1 0 1 2 4 3 3 3 3 4 3 8 4 3 5 3 1 2 1 0 1 3 2 8 7 6 10 9 5 3 4 7 11 11 12 10 7 6 4 4 1 4 10 11 12
11 12 12 12 13 14 15 17 18 19 20 3 2 2 3 2 1 0 0 1 3 1 6 6 4 2 2 0 2 2 1 3 2 3 4 4 2 2 2 6 5 4 3 1 2 2 5 4 3 1 3 3 5 4 5 3 2 3 1 1 1 2 3 4 2 9 12 11 6 3 2 2 2 7 9 10 12 10 8 6 5 5 2 5 7 11 10
11 12 12 12 13 14 15 17 18 20 21 3 3 3 1 2 2 4 4 1 3 3 3 4 5 3 3 2 2 1 0 4 4 3 2 4 5 2 4 10 9 5 5 2 2 4 5 6 6 2 1 11 2 3 4 5 2 1 0 2 1 1 5 2 2 5 11 9 1 1 2 2 1 7 7 11 12 7 7 5 5 7 6 5 9 10 9
9 10 12 12 13 13 15 16 17 20 17 3 3 1 1 1 1 0 1 4 4 3 3 5 3 2 4 4 3 1 2 3 3 5 4 5 3 4 9 10 10 7 4 5 6 8 7 7 11 10 5 7 4 1 4 2 3 4 4 0 0 1 4 1 1 6 8 7 3 6 1 4 1 8 13 14 13 9 8 5 5 4 7 10 10 8 9
9 10 10 12 12 12 13 14 15 17 15 3 2 2 1 0 1 1 1 1 2 3 3 3 3 3 2 3 3 1 3 4 5 4 5 1 1 5 8 10 6 8 7 9 9 10 7 10 11 8 9 10 11 9 12 8 7 2 1 0 1 4 0 3 2 4 5 9 4 7 4 2 3 11 10 10 11 8 8 6 4 5 6 8 9 8 10
9 8 8 10 11 11 12 12 12 13 8 4 2 1 2 4 3 4 3 0 4 2 3 2 3 1 3 5 4 2 3 5 4 4 3 3 7 5 7 7 6 6 3 4 7 7 8 8 10 5 7 10 11 11 10 10 6 6 3 1 2 2 3 3 1 1 5 11 9 5 3 6 6 5 2 4 10 13 8 10 12 6 2 5 4 9 13
8 7 7 9 10 10 10 11 10 10 6 2 0 1 1 0 1 1 1 2 3 2 2 3 1 2 3 5 3 4 5 6 6 1 6 4 7 5 6 7 2 3 5 7 8 7 8 6 6 7 8 11 13 13 10 9 3 4 6 5 3 1 1 2 2 1 5 7 7 3 5 1 4 3 4 2 7 8 8 13 9 3 5 9 9 9 11
9 7 6 7 9 10 10 10 10 9 6 4 0 0 3 1 1 1 1 1 3 1 3 4 3 4 3 4 5 5 7 7 4 2 3 5 7 5 2 3 4 7 9 12 12 8 4 6 8 4 7 4 4 7 6 4 4 5 2 3 3 2 2 1 1 2 2 3 3 2 0 2 2 5 4 4 4 5 8 6 2 3 6 13 7 9 11
9 8 6 5 7 9 9 9 9 8 8 5 4 2 2 2 3 2 1 2 4 2 2 4 4 6 7 6 5 7 7 7 5 3 4 1 6 10 6 4 7 9 9 7 6 1 4 4 4 7 8 5 1 1 0 3 4 5 6 5 6 4 2 2 3 0 1 1 1 2 1 2 2 4 6 9 7 11 8 6 4 2 8 14 9 9 13
9 8 6 5 6 8 9 9 8 8 7 5 1 2 2 3 2 2 0 2 2 4 2 1 2 4 4 5 3 7 6 6 6 5 3 4 3 3 5 10 9 10 10 4 3 2 0 0 2 3 5 4 2 1 1 0 1 4 6 3 3 6 4 3 1 2 2 1 2 3 3 2 5 3 9 6 3 5 5 4 4 3 12 13 11 11 14
10 9 7 6 6 7 7 8 8 7 6 5 1 1 4 3 0 2 1 1 2 2 2 1 2 2 2 4 4 5 5 3 4 5 5 1 4 8 5 4 9 8 5 1 0 1 1 0 2 0 1 1 3 0 1 0 1 2 1 2 2 2 2 3 1 3 3 2 0 1 1 3 2 8 9 12 8 4 2 3 3 7 14 15 13 15 14
10 9 8 8 7 6 6 5 7 7 6 4 2 3 2 3 2 1 1 1 2 5 4 4 1 1 2 5 3 3 2 3 4 5 6 5 5 6 10 10 8 2 5 3 3 2 4 1 0 2 4 2 2 1 1 1 2 3 7 2 5 3 1 2 1 2 0 0 0 2 2 1 3 7 8 11 10 0 4 3 5 12 14 14 15 15 15
11 10 8 8 8 7 7 6 8 7 5 1 2 1 3 3 3 1 2 1 0 4 3 0 3 2 2 2 4 3 3 4 4 2 5 4 3 2 7 7 7 6 3 3 2 2 2 0 3 1 2 2 2 1 1 3 2 2 2 4 3 3 3 3 0 1 2 2 2 1 2 2 3 5 8 10 10 1 5 10 10 12 13 13 12 13 13
12 11 9 8 8 8 8 8 7 8 6 1 1 3 3 2 2 2 2 0 1 3 6 4 1 3 4 3 4 3 2 3 4 3 4 5 1 3 5 7 1 3 6 2 3 1 1 1 1 0 1 4 3 1 3 2 2 1 0 3 4 2 1 2 1 2 1 1 1 3 3 2 2 6 4 8 5 5 10 6 7 10 11 11 12 12 12
13 12 10 9 10 11 10 9 9 8 6 4 2 2 4 5 4 1 2 2 1 4 6 7 2 6 2 3 3 3 5 5 2 3 1 4 2 10 8 2 1 2 5 2 2 1 1 1 1 1 2 1 2 2 3 2 1 1 1 1 1 2 1 2 2 2 1 2 3 3 1 2 1 5 2 3 4 3 6 7 8 8 7 8 12 10 11
13 12 11 11 12 12 12 11 10 9 8 7 4 1 4 3 2 2 2 3 1 3 6 2 2 7 3 6 6 5 4 9 6 4 4 4 3 2 1 2 2 2 2 2 2 3 1 2 2 1 1 0 4 3 1 2 5 3 1 1 2 1 1 1 1 1 1 0 1 1 4 4 3 3 2 3 1 4 6 4 8 8 6 5 8 10 9
13 13 12 11 13 13 12 11 10 10 9 9 8 2 3 3 3 1 1 3 4 5 5 4 2 8 12 11 11 10 12 13 14 7 6 6 2 3 3 3 3 1 1 1 2 2 3 1 1 2 2 4 2 2 0 3 2 0 1 2 2 4 2 4 2 2 2 2 2 3 4 3 4 1 1 2 5 4 4 4 6 6 7 2 5 9 10
14 13 12 12 13 13 11 10 10 9 11 10 9 4 5 1 2 0 2 2 2 4 5 8 5 9 10 11 14 13 12 12 10 5 7 6 5 3 7 4 4 3 1 1 2 2 2 1 2 2 1 3 2 4 2 4 2 1 2 1 1 1 2 1 2 3 2 2 4 0 3 4 6 3 3 3 4 5 4 4 5 6 7 6 5 9 9
15 14 12 13 14 13 13 11 10 10 11 11 9 5 5 4 1 1 1 0 1 5 5 2 2 4 1 5 1 3 6 6 10 11 8 8 5 5 3 3 3 0 0 2 4 1 2 2 4 1 2 4 0 2 2 3 2 1 2 3 0 2 1 1 2 2 1 2 1 2 3 4 3 3 5 4 3 3 3 5 4 6 7 8 7 7 8
14 14 13 13 14 14 13 11 11 11 11 12 11 6 2 2 3 4 3 1 2 1 4 4 5 12 9 6 6 8 7 5 4 6 6 10 11 8 7 5 5 5 3 3 1 3 2 1 2 0 3 5 2 5 3 1 6 2 5 5 2 3 1 0 2 2 3 3 4 2 4 5 5 1 3 4 5 6 6 4 4 5 6 7 6 5 7
15 14 13 12 13 14 13 11 11 11 11 13 11 6 6 6 4 5 2 1 0 1 2 5 6 3 2 6 9 6 3 6 10 10 10 12 14 14 13 4 4 1 2 1 4 2 2 0 1 1 1 6 1 1 3 2 6 5 5 8 7 2 1 2 1 2 5 3 3 3 5 2 3 5 4 4 5 5 6 6 6 6 8 9 8 5 5
15 14 14 13 14 14 13 11 11 11 12 12 9 6 6 4 6 8 6 4 2 3 2 6 6 5 4 9 13 9 8 6 6 8 9 10 12 12 11 10 10 2 2 0 1 2 1 2 2 4 4 5 1 3 3 6 3 3 3 4 0 1 2 1 2 2 2 2 2 0 1 3 6 4 5 5 6 4 4 5 6 7 8 8 8 10 7
15 14 14 14 15 15 14 12 12 11 12 11 8 6 5 6 6 8 6 5 7 4 2 4 6 5 5 14 9 3 4 5 7 9 10 9 11 12 12 13 10 4 2 3 2 1 2 3 6 4 2 3 1 5 2 3 1 2 3 4 3 3 3 3 2 3 4 6 6 4 3 2 4 3 4 4 4 4 5 5 5 7 7 7 9 11 11
15 15 15 14 14 14 14 13 12 11 11 9 4 4 5 7 6 7 9 7 4 2 2 4 6 4 5 6 7 11 6 4 7 7 7 7 7 8 11 11 10 7 3 3 2 3 2 5 3 3 2 3 0 4 1 3 2 5 6 4 3 5 5 6 7 5 4 4 4 3 1 0 1 4 4 4 4 4 4 5 6 6 6 8 9 9 10
16 15 15 14 14 13 13 13 12 11 10 5 2 1 2 5 8 10 12 10 7 2 1 1 4 5 3 5 8 8 9 7 6 7 7 6 6 6 6 8 8 8 6 5 5 3 4 3 3 2 2 4 3 2 1 2 4 6 6 4 6 2 3 5 5 4 2 0 1 1 1 2 2 3 3 3 4 4 3 6 6 7 6 7 9 8 8
17 16 15 14 14 13 13 12 11 11 10 4 2 1 1 3 2 5 10 8 7 5 1 1 6 5 6 3 4 10 11 8 7 7 7 5 6 7 6 5 4 8 6 2 2 6 2 3 2 3 2 6 4 2 3 3 5 3 4 5 5 4 4 6 2 2 3 1 0 1 2 1 2 4 5 6 6 4 4 5 6 7 5 7 8 7 8
16 16 14 13 13 13 12 12 12 12 8 7 7 5 4 2 1 3 10 8 8 3 2 1 3 2 4 4 3 3 7 11 7 3 3 2 3 6 5 8 5 8 6 6 3 1 4 4 3 4 3 6 5 2 2 4 8 8 3 5 5 5 4 3 4 3 3 3 3 2 3 3 3 2 2 4 3 2 4 5 6 6 6 4 5 6 7
16 15 15 14 13 13 12 12 13 10 8 10 3 3 2 4 4 4 9 8 3 1 2 1 3 1 3 5 5 5 4 1 1 0 3 3 4 3 4 4 3 2 2 4 2 4 4 5 2 4 7 4 2 2 4 9 9 6 8 7 7 4 4 4 5 5 4 3 3 2 2 2 1 3 2 2 1 3 4 5 5 6 5 5 7 8 10
16 16 15 14 13 12 12 12 13 13 9 3 4 6 3 0 7 10 8 4 2 1 1 2 2 3 6 4 5 4 1 1 3 1 4 3 1 3 3 3 2 3 3 7 4 1 1 2 5 5 1 3 3 1 6 8 7 10 9 8 5 4 7 5 5 5 4 4 2 3 4 3 1 0 3 4 4 4 4 5 5 6 4 5 6 7 8
17 16 14 13 13 11 10 11 7 7 5 4 3 1 7 12 10 12 11 3 4 0 0 1 1 3 4 2 2 6 1 1 2 1 2 4 1 4 1 2 1 3 4 2 0 4 5 6 5 2 7 1 3 5 6 7 7 8 6 6 5 6 4 4 3 4 4 2 4 4 2 3 3 2 1 2 3 4 5 5 5 5 5 5 5 6 7
17 16 14 13 11 9 5 7 5 4 4 3 2 5 14 14 13 9 4 1 1 3 3 2 3 4 2 5 4 3 2 3 2 2 3 1 2 3 2 3 3 6 1 3 5 3 5 4 3 6 2 3 7 6 10 8 9 8 10 11 10 11 7 8 5 4 0 3 6 3 4 3 1 1 1 1 3 4 5 5 6 5 4 4 5 5 6
16 15 16 14 8 4 5 3 3 4 3 4 8 13 12 8 3 2 1 1 1 0 3 2 3 6 6 4 1 5 1 2 3 2 2 2 5 2 3 3 7 1 2 3 3 6 7 3 3 4 3 6 8 10 11 8 9 8 7 8 8 5 5 4 6 6 6 6 6 4 3 2 1 2 4 4 3 4 6 6 4 5 5 5 4 5 6
17 16 9 6 4 3 2 3 4 8 18 21 16 7 2 2 1 1 1 1 2 2 2 2 7 3 2 3 7 4 0 3 2 1 3 2 1 3 1 3 5 3 6 4 7 5 3 3 4 8 7 9 11 8 7 8 9 9 8 9 7 6 7 6 6 5 5 4 3 2 1 2 1 1 4 3 4 5 4 3 4 4 4 3 3 4 5
15 8 4 2 3 3 3 2 10 21 12 3 3 3 1 0 2 1 3 1 1 3 1 4 7 5 6 7 10 0 2 1 2 0 1 3 1 4 1 3 2 2 3 1 5 7 3 3 2 3 8 5 5 9 5 4 3 5 8 8 8 7 6 5 6 7 6 5 6 5 5 4 2 3 3 4 3 3 3 4 4 4 4 3 3 3 4
7 7 4 4 3 2 2 11 19 10 3 2 1 3 3 1 3 3 2 2 2 1 2 7 3 6 11 13 10 6 3 4 6 4 4 5 1 2 3 1 2 2 4 4 5 4 3 3 3 3 6 5 9 4 7 8 9 6 8 8 7 6 6 6 4 4 5 4 6 6 4 5 7 8 6 4 4 4 3 3 3 3 4 3 2 4 4
5 3 4 3 3 3 4 4 4 4 3 2 1 1 2 2 3 1 2 4 4 3 3 3 2 4 6 6 5 9 2 1 1 1 0 3 2 1 0 2 1 1 3 3 3 2 1 1 2 5 7 6 5 6 6 7 9 7 7 7 7 6 6 5 4 3 6 5 4 6 8 9 9 8 6 6 5 4 3 2 2 3 4 4 3 4 3
4 4 5 7 5 5 4 3 2 3 2 0 2 3 3 1 2 1 2 5 6 3 4 5 4 6 6 11 8 3 2 3 1 1 2 3 3 3 2 2 1 3 3 5 2 1 1 3 2 3 4 4 4 8 9 9 7 9 7 7 6 6 6 5 4 2 7 8 6 7 7 8 8 7 7 6 5 4 4 3 2 2 3 3 3 4 4
20 14 9 6 2 1 1 2 1 2 4 3 2 3 3 4 5 5 3 2 1 2 2 2 2 2 1 3 1 3 3 2 2 1 1 3 2 1 2 1 1 3 5 1 1 3 3 3 2 5 5 3 9 11 11 10 8 7 7 6 6 6 7 5 4 3 6 8 9 8 8 8 8 7 6 6 4 4 2 2 1 0 1 2 4 4 4
6 4 5 1 3 1 1 4 1 2 3 2 5 7 6 4 4 3 2 4 4 3 5 8 7 8 5 3 4 2 0 1 2 1 2 2 1 1 1 3 4 5 2 1 0 5 5 2 5 5 4 4 5 6 6 8 9 7 6 6 6 6 5 5 4 7 5 4 6 6 7 7 6 5 5 4 4 4 3 3 2 1 1 4 4 4 3
5 3 3 2 2 2 2 3 2 3 6 6 3 4 7 10 8 9 8 3 5 5 5 4 5 6 3 3 1 2 2 2 1 2 3 2 2 2 2 3 2 0 2 4 2 3 2 5 2 0 3 6 8 9 8 9 9 10 9 6 6 6 5 5 4 8 7 7 7 6 6 6 7 6 5 4 4 4 5 3 2 2 1 3 4 4 3
4 5 4 4 5 3 3 2 4 6 3 3 6 6 6 4 5 7 3 3 4 2 7 8 6 5 3 3 4 3 2 3 3 3 2 1 2 4 3 2 0 1 2 2 4 7 7 4 2 5 7 8 9 9 9 7 7 7 10 10 8 7 6 6 6 9 9 7 6 6 6 5 6 5 4 4 5 4 3 3 3 4 3 4 4 4 3
3 1 1 1 1 3 2 5 6 3 4 4 4 6 7 5 4 4 4 4 6 6 5 5 7 7 5 4 1 2 2 1 2 2 2 2 3 2 0 2 4 3 3 4 6 4 2 4 5 5 6 6 7 8 9 9 8 9 9 8 7 7 6 7 7 6 5 6 6 6 5 5 3 3 4 4 3 3 4 4 4 4 4 4 5 4 4
3 1 2 4 5 4 9 5 1 2 3 3 5 6 6 3 2 4 4 7 6 6 7 5 3 2 2 2 2 4 3 1 0 2 2 2 0 1 1 2 3 2 3 4 5 2 2 2 4 5 6 9 12 11 10 10 9 9 8 8 8 8 7 7 5 6 8 7 7 7 5 4 5 5 6 6 4 3 4 4 4 4 4 4 4 4 5
2 3 4 3 1 2 1 2 7 6 5 5 4 4 5 6 8 6 4 3 6 6 7 6 4 3 2 2 3 2 3 2 3 3 1 1 3 4 3 4 3 6 5 3 3 3 4 6 5 4 6 6 8 10 9 9 9 9 9 10 9 9 6 7 8 7 7 8 7 6 5 4 5 5 4 5 6 4 4 4 4 3 4 5 5 5 4
2 1 1 1 1 3 2 0 4 5 3 4 4 4 5 7 7 6 3 5 4 6 4 3 2 2 2 2 2 2 2 2 3 1 3 5 3 2 2 5 5 3 1 2 3 4 4 4 6 5 6 7 9 9 9 7 8 9 8 8 7 7 8 9 8 8 8 8 8 7 6 5 6 6 5 5 3 3 4 4 4 4 3 3 4 6 5
0 1 3 1 2 1 3 4 5 4 5 7 6 6 6 7 6 5 2 4 6 5 4 5 3 2 2 1 2 3 3 2 2 5 4 4 3 3 5 9 4 3 4 3 4 5 6 6 7 7 6 7 7 7 8 8 8 8 8 8 7 6 7 9 9 9 9 9 8 8 7 6 6 6 5 4 5 6 4 3 2 3 4 3 3 5 5
2 3 3 2 4 5 3 2 2 1 2 1 4 3 3 4 2 2 3 6 6 8 7 3 3 2 2 5 4 1 1 1 3 3 5 5 3 4 5 5 3 3 4 1 2 3 4 6 7 8 9 9 9 9 8 7 8 8 8 7 7 7 7 7 7 7 7 6 6 6 6 6 5 5 4 4 4 5 4 3 1 1 4 3 3 5 7
Wind_Direction
328 329 331 333 334 335 337 342 346 352 353 10 355 331 24 38 243 259 311 323 96 66 63 336 21 11 244 281 293 322 313 3 270 46 300 48 98 25 52 221 54 252 168 304 291 340 295 256 220 302 290 287 292 307 351 338 357 81 317 41 306 118 54 308 269 265 269 320 346 89 117 54 303 190 227 240 240 208 216 218 183 269 286 314 302 232 260
325 327 328 331 331 334 336 339 345 352 10 3 305 33 56 265 269 317 302 26 79 76 56 334 326 300 318 24 329 319 352 27 359 322 298 140 334 186 230 318 216 237 212 170 328 358 13 314 359 309 304 294 306 320 10 356 321 75 224 121 250 45 291 135 291 315 310 225 308 61 157 85 58 316 306 295 282 278 268 247 96 231 212 211 182 259 278
322 324 327 329 331 332 334 336 339 348 354 4 19 27 293 279 260 234 295 354 50 98 180 151 238 323 325 358 359 4 358 334 307 303 312 70 158 73 255 205 205 280 269 340 288 269 186 284 279 313 288 280 296 310 358 342 305 168 215 163 122 108 202 86 323 338 342 340 345 337 334 344 313 284 325 344 351 346 342 237 173 211 278 328 259 279 296
320 323 325 328 330 330 332 334 335 338 347 352 72 230 26 22 28 307 338 4 9 40 36 105 122 339 334 18 294 48 335 314 309 360 317 73 344 232 261 312 73 276 42 358 289 282 241 215 277 320 289 301 303 310 328 319 272 213 147 125 92 143 132 151 185 199 290 283 278 276 305 304 332 333 348 347 351 11 300 275 251 250 318 302 264 302 319
317 320 322 327 329 330 332 333 332 334 338 344 161 297 137 281 67 357 337 332 37 7 3 21 27 319 233 28 157 14 329 299 308 330 316 1 335 330 171 337 44 300 51 246 275 247 285 258 276 265 275 256 266 309 294 296 255 194 163 125 79 65 353 252 213 232 241 258 268 270 287 303 305 344 353 349 350 343 342 341 335 328 323 290 4 325 316
313 315 321 326 328 331 333 332 333 334 337 350 176 46 266 44 277 93 186 133 272 9 324 3 331 307 244 272 60 13 350 347 350 295 118 345 40 46 326 35 275 218 236 241 297 276 276 290 258 281 250 299 308 322 298 278 212 142 69 74 96 123 274 270 152 278 268 238 259 273 287 281 285 359 353 353 344 346 354 342 327 327 290 311 318 322 315
307 315 321 325 329 331 334 334 335 337 338 30 186 74 306 126 255 130 61 83 260 210 259 306 314 333 37 103 59 357 53 346 320 331 311 353 314 90 296 305 297 274 253 113 236 275 344 313 258 244 282 265 321 319 332 329 39 83 94 12 151 74 241 253 205 296 307 315 315 286 189 259 287 2 352 346 351 347 353 324 324 320 254 307 311 322 310
307 314 320 326 329 332 336 338 341 339 338 324 68 70 63 342 53 310 353 30 286 276 320 324 350 92 4 71 318 333 93 352 324 309 309 317 303 354 347 304 308 291 286 234 229 229 208 230 282 242 288 310 176 240 211 255 324 92 168 193 271 109 277 309 340 336 309 308 51 133 188 217 210 3 3 358 352 341 4 329 321 312 255 295 326 325 303
302 306 317 324 328 334 337 342 347 341 343 62 61 72 70 266 195 194 346 343 286 315 357 338 4 45 344 63 300 360 335 335 315 290 258 233 257 342 315 305 304 302 286 260 244 252 241 233 226 241 233 259 263 271 279 192 285 307 293 222 54 116 259 29 70 347 304 306 16 320 180 215 126 2 5 355 350 348 339 325 312 305 306 312 317 324 331
295 303 311 321 327 333 337 345 350 349 343 99 53 47 278 37 294 13 142 272 308 13 314 324 46 8 311 13 321 352 287 278 322 332 289 253 321 316 309 303 305 296 320 293 254 252 235 238 241 236 235 226 255 223 249 243 248 267 202 268 184 181 176 337 345 339 261 285 346 321 349 109 292 3 346 336 333 332 307 289 304 283 304 318 338 326 305
287 294 303 316 325 330 335 344 351 3 5 53 53 44 354 54 352 354 37 91 316 16 22 327 87 262 11 344 324 312 294 323 337 347 279 319 308 327 323 318 315 280 259 262 255 242 251 253 266 262 254 250 246 255 245 253 227 204 171 46 272 156 179 243 144 265 276 296 323 335 14 36 9 278 227 320 332 322 317 318 311 314 253 279 282 283 296
277 285 298 313 319 324 333 338 346 4 35 343 166 241 254 198 106 112 82 84 258 315 61 262 249 297 349 312 317 310 313 318 299 279 291 300 289 318 319 311 332 324 281 304 310 304 292 277 269 270 250 253 254 256 244 234 232 168 165 175 205 194 157 235 188 183 266 306 347 42 28 21 235 242 260 241 302 289 294 302 301 284 291 277 282 286 309
265 274 282 301 310 317 324 330 339 346 11 10 56 318 293 303 157 134 146 125 246 338 348 300 305 279 266 322 340 309 301 298 307 318 279 294 315 321 285 288 314 296 316 315 310 321 334 294 309 306 305 337 17 33 62 113 181 220 219 180 136 197 159 203 304 207 329 358 8 61 282 245 315 289 264 289 266 217 318 314 159 240 291 327 312 289 320
258 263 268 283 304 308 314 321 328 335 353 13 17 308 284 343 73 46 80 96 286 247 213 312 336 344 337 324 310 302 314 306 299 332 321 253 299 297 294 306 294 289 296 302 301 343 347 31 340 4 326 8 360 17 257 187 208 190 223 222 205 159 102 111 277 175 226 252 290 226 316 355 308 324 334 343 340 332 333 313 297 244 334 338 324 317 327
245 251 257 262 282 296 302 310 318 327 339 3 335 296 307 332 90 125 264 103 223 280 172 189 282 279 296 296 315 312 303 290 327 297 249 265 263 249 289 292 294 302 308 334 334 26 210 40 4 356 320 31 4 271 307 132 269 209 230 262 180 171 179 236 114 280 165 303 352 349 21 339 290 294 295 305 262 240 262 229 288 293 342 338 328 327 327
238 242 246 253 268 280 293 300 304 313 326 351 10 309 282 282 116 105 130 151 117 2 257 192 311 283 289 282 288 274 277 300 288 294 311 292 243 299 298 302 310 312 316 295 321 25 26 81 252 93 239 274 284 52 301 330 318 308 107 308 16 101 108 136 111 273 26 17 27 233 182 250 226 304 309 307 320 311 213 157 248 344 343 332 333 335 329
233 234 238 247 249 255 264 279 289 297 315 5 18 322 292 1 52 118 81 24 105 218 257 297 299 93 348 309 350 339 344 310 305 326 319 327 329 325 314 330 314 354 348 70 3 53 19 15 305 216 272 276 350 227 296 35 316 311 319 360 57 67 32 54 38 355 280 204 159 264 198 245 330 309 309 307 309 133 158 320 350 340 331 331 336 332 331
229 229 228 237 246 249 251 254 264 276 293 357 36 347 296 314 304 100 68 121 137 282 269 181 61 10 249 217 278 265 265 277 300 278 259 279 324 349 337 341 342 325 22 67 359 63 19 47 25 340 291 264 312 42 357 300 314 273 323 314 340 8 337 51 4 189 310 60 289 343 317 280 267 280 307 304 317 32 5 8 320 318 320 324 330 325 328
227 225 223 230 240 243 245 247 248 260 277 316 54 325 274 234 316 96 132 18 163 241 265 318 39 251 256 268 251 252 270 316 301 302 302 342 278 332 339 279 274 316 359 23 45 82 12 285 326 277 273 314 353 60 299 16 305 282 43 16 359 4 320 298 56 30 288 227 169 234 233 232 239 294 319 309 343 28 346 297 285 300 306 323 324 325 326
226 222 217 221 236 238 237 236 238 237 238 222 162 216 269 312 293 236 143 200 228 257 279 270 264 264 259 263 286 301 307 310 245 258 248 257 322 1 358 17 333 14 328 60 40 278 78 322 298 338 14 312 272 311 341 296 307 196 241 171 137 220 93 255 295 294 34 46 29 23 14 263 271 340 1 357 54 271 248 285 298 300 303 319 323 323 321
227 223 217 219 233 234 232 230 226 225 217 212 181 223 306 288 299 243 165 144 163 295 297 277 233 241 248 258 245 253 254 255 255 275 266 276 292 350 305 232 290 7 317 30 356 317 19 330 326 323 248 267 284 2 256 300 313 280 183 182 168 208 109 304 286 175 212 337 151 207 214 241 298 70 53 300 233 240 275 282 299 308 311 309 326 321 319
225 224 219 222 235 232 230 227 222 218 217 206 181 177 235 270 298 307 112 130 195 209 236 249 248 271 265 256 256 238 237 243 247 224 250 275 248 219 236 283 269 196 269 86 40 356 4 306 6 35 336 300 5 239 244 6 302 257 32 78 1 205 165 178 204 246 150 215 224 260 264 254 271 162 204 236 273 284 274 284 276 297 316 270 300 312 315
223 223 218 223 231 229 228 223 216 213 211 203 187 186 213 258 263 152 110 217 271 276 279 281 285 279 277 257 239 237 232 230 247 227 210 218 294 263 231 244 266 231 268 104 167 169 203 127 245 195 294 229 221 313 306 189 233 342 321 236 196 268 164 138 94 274 244 245 194 328 327 324 312 284 227 251 285 294 293 300 303 311 317 305 277 310 311
221 222 217 219 227 226 225 221 214 210 210 209 197 180 214 218 256 58 68 172 264 302 283 252 19 294 285 309 291 212 198 223 221 225 201 187 214 285 306 235 196 323 266 219 176 148 212 149 224 163 218 252 13 246 245 308 277 242 6 327 295 268 152 123 164 274 111 214 150 348 292 299 268 271 308 296 273 268 291 311 296 301 323 328 309 308 316
220 220 217 217 222 222 220 216 212 208 210 213 210 211 195 208 201 187 168 171 226 149 275 305 234 257 277 271 277 273 244 214 162 186 183 200 212 219 223 222 188 184 227 227 77 51 40 170 306 238 247 261 174 262 227 190 289 43 351 272 340 318 206 125 212 170 176 235 210 251 271 249 247 272 315 303 303 303 311 304 304 316 325 344 328 330 341
217 220 218 213 218 220 220 218 211 208 209 213 213 205 200 217 171 168 210 266 149 142 233 280 285 288 312 307 275 257 311 304 281 267 230 212 210 223 241 274 293 27 132 145 108 183 177 137 164 179 166 284 154 208 254 211 254 282 233 246 205 197 80 240 188 232 283 322 306 291 320 342 330 331 315 289 292 303 324 333 340 345 355 350 337 334 339
213 215 216 214 214 217 218 214 210 207 207 212 216 214 216 215 169 175 183 181 138 297 177 264 263 287 352 306 283 294 280 255 257 243 243 221 219 219 227 238 241 241 149 34 349 141 120 183 142 236 182 230 235 251 253 295 235 260 263 264 216 33 244 201 58 353 325 202 247 352 38 283 302 321 302 305 319 341 343 351 357 358 359 355 351 345 339
210 211 212 212 215 215 214 209 206 205 206 209 213 220 218 215 199 198 200 192 192 232 217 257 289 277 316 276 280 265 274 268 262 263 256 236 218 224 219 224 220 187 181 152 290 219 179 200 244 227 204 281 287 281 233 255 325 307 250 257 187 168 210 136 168 184 241 249 242 211 199 236 233 254 295 311 329 349 8 360 353 353 4 356 3 1 354
206 208 208 209 212 214 210 205 202 203 201 205 192 225 239 224 217 206 210 211 224 291 313 287 294 302 279 276 317 297 270 229 262 255 255 257 236 222 220 211 201 196 148 124 142 150 167 226 183 168 190 213 120 269 353 291 257 250 246 235 200 223 169 169 200 187 249 234 241 205 155 144 267 300 300 318 329 349 4 10 356 3 3 3 9 2 360
205 206 206 206 209 211 209 203 198 193 191 180 149 187 300 288 193 201 200 199 183 132 182 298 297 262 329 320 290 290 301 294 255 246 237 230 240 232 214 195 208 190 174 178 164 218 217 208 252 257 229 133 197 224 242 231 256 248 252 239 226 251 197 210 167 166 232 237 205 192 155 196 253 282 283 320 347 6 16 13 3 5 6 15 10 359 357
203 204 204 203 203 206 207 202 193 185 171 170 137 160 197 281 289 210 186 177 162 141 183 148 243 326 309 242 264 287 289 290 290 296 285 261 234 237 235 176 193 168 190 192 162 224 141 245 178 266 233 176 159 202 223 249 264 273 258 229 230 228 207 223 193 161 140 134 115 92 95 8 307 345 6 1 353 9 28 15 9 10 8 16 5 2 358
203 203 202 199 199 201 203 198 192 182 185 175 193 188 186 196 255 168 165 159 135 121 121 360 311 287 273 291 262 261 275 276 276 256 234 168 243 209 207 179 195 186 172 178 204 114 226 205 178 219 184 202 155 253 205 223 242 247 245 229 229 216 198 154 139 167 132 149 97 35 12 339 352 84 257 301 321 5 64 31 16 10 0 3 351 357 3
197 196 196 196 195 197 199 198 191 185 196 209 191 58 292 304 296 147 137 132 111 175 149 109 233 300 276 269 298 267 229 328 276 313 293 191 218 166 206 191 156 149 197 119 204 206 209 169 160 242 234 134 164 216 226 234 236 236 226 212 220 199 148 159 156 160 158 179 139 153 206 211 292 310 290 298 338 54 53 37 19 12 9 360 2 5 8
192 190 191 190 191 192 196 195 195 201 216 202 225 232 196 73 140 141 138 120 114 136 80 141 245 238 261 331 319 289 6 18 270 334 291 287 186 149 213 159 195 169 218 188 250 185 299 126 193 225 47 223 180 173 252 243 226 236 232 216 199 166 158 167 168 167 184 191 161 146 180 203 223 346 40 27 24 20 46 47 28 23 2 8 10 16 1
188 185 186 184 184 187 188 187 198 202 195 196 250 239 168 172 164 160 159 153 117 313 83 248 176 276 308 304 240 271 311 4 312 221 216 270 219 209 188 158 309 193 272 126 174 191 198 216 156 151 237 160 150 226 242 248 236 228 221 205 188 160 150 153 196 184 192 182 127 132 110 73 58 13 356 6 43 35 55 36 27 29 24 16 14 15 8
182 177 176 173 170 170 176 199 202 181 209 195 217 175 168 164 162 166 155 67 127 153 163 217 162 223 190 275 281 276 349 292 245 277 236 246 292 194 165 125 214 234 193 168 218 198 214 208 129 243 147 177 228 207 232 217 228 220 201 197 192 177 182 175 158 180 105 122 137 134 86 71 86 13 51 57 61 50 56 47 25 27 37 27 18 14 11
172 170 161 155 151 165 198 205 157 188 217 133 116 106 107 105 65 90 17 347 282 85 183 174 208 215 184 245 289 274 45 298 312 317 319 222 228 264 160 145 222 249 177 233 198 215 238 136 189 226 199 205 242 225 226 212 211 210 204 198 185 179 145 147 155 141 111 124 115 116 125 114 17 40 77 65 59 56 54 42 27 27 25 22 20 16 17
163 157 148 146 125 171 220 225 195 139 119 121 120 97 1 15 120 6 358 215 263 179 254 187 246 192 169 193 243 236 72 261 15 337 299 267 338 272 160 178 224 160 226 210 224 161 108 159 211 219 246 232 244 245 220 216 219 212 187 166 164 162 155 163 152 125 121 116 124 133 72 56 4 4 99 74 59 61 59 54 35 30 26 30 25 16 17
151 147 134 152 133 177 188 232 138 131 119 118 55 85 65 224 96 210 221 200 232 209 202 200 235 167 196 230 251 267 209 158 347 343 276 277 78 298 319 209 278 187 261 190 277 130 219 238 230 215 246 241 241 243 210 181 167 161 153 153 149 152 141 151 149 146 157 177 183 184 157 160 135 93 104 93 67 61 54 49 32 18 11 26 26 25 20
147 161 163 144 178 202 98 129 131 111 83 73 350 104 149 214 190 209 115 183 239 235 193 235 209 195 200 214 241 266 143 175 218 219 211 300 236 209 277 288 270 168 239 199 243 169 173 221 208 197 258 228 235 227 161 159 144 154 143 152 150 148 142 153 176 175 153 166 152 158 136 118 117 124 127 120 101 80 41 38 28 19 6 9 29 38 32
157 113 124 146 146 111 102 122 36 55 77 76 53 4 106 173 221 202 169 224 207 231 183 200 161 225 218 223 210 244 255 106 289 145 164 242 259 338 355 237 253 253 239 224 270 139 162 234 212 200 237 226 195 169 157 148 147 154 156 155 153 150 145 146 160 145 120 138 133 103 113 118 119 123 126 131 125 124 125 110 55 20 1 8 26 26 27
156 131 119 95 89 95 87 28 74 81 51 101 169 194 190 193 112 206 213 196 211 193 218 166 211 199 218 191 196 165 259 186 158 139 150 263 247 171 227 257 297 233 250 234 169 103 141 231 225 260 256 239 179 156 153 156 163 159 167 163 155 155 144 127 134 117 150 141 130 123 129 126 129 130 134 134 138 145 136 103 44 12 348 359 33 46 38
101 104 97 97 60 41 99 93 248 125 162 164 172 205 178 199 197 181 195 228 241 207 216 152 247 137 69 101 202 196 207 183 158 211 154 240 287 190 185 249 254 262 235 279 201 247 226 230 223 245 247 198 169 173 176 165 160 155 159 159 157 160 145 133 163 138 141 141 141 138 136 134 141 151 151 141 142 136 137 142 140 263 7 62 76 63 56
90 62 68 33 86 287 132 207 150 113 224 202 175 190 172 201 192 179 214 213 177 215 187 172 193 160 214 191 146 155 359 263 186 143 240 244 255 240 188 227 220 251 304 308 236 227 226 226 208 220 217 164 155 161 159 154 161 151 148 161 150 146 149 158 112 96 120 121 133 144 137 135 141 155 157 157 146 143 175 187 194 153 106 99 86 79 77
104 54 75 66 144 179 134 222 136 200 209 189 181 207 183 207 190 191 200 182 163 209 171 143 136 177 185 174 118 227 156 203 128 164 233 169 235 222 211 244 249 265 214 237 240 262 248 252 276 224 161 172 177 173 171 164 161 157 157 156 151 154 158 167 148 141 154 159 162 150 143 150 148 165 174 171 168 162 160 194 202 157 146 116 112 91 92
111 155 142 154 186 208 202 211 159 211 222 183 204 190 189 208 158 202 185 137 180 167 157 179 159 152 185 183 152 192 166 138 149 215 201 167 194 236 222 253 328 325 285 231 236 234 224 232 238 221 205 186 171 169 163 159 154 147 143 159 176 172 176 164 161 158 170 170 168 155 158 158 163 167 181 181 169 177 162 198 162 152 157 117 127 123 128
79 59 112 105 213 205 160 216 199 203 179 201 180 179 205 197 185 169 177 166 184 190 166 169 170 165 168 184 176 286 212 152 188 230 139 190 205 266 257 152 230 193 207 228 233 238 246 246 233 221 178 162 157 156 156 159 162 160 163 162 166 177 174 167 178 166 164 148 148 155 160 162 168 171 155 155 167 168 190 187 176 174 146 148 153 138 119
136 164 130 196 214 156 203 217 153 224 222 195 203 197 203 173 182 220 206 184 185 151 153 136 149 151 232 283 178 210 202 169 145 271 169 212 216 216 246 234 233 228 209 221 232 199 226 237 217 202 186 170 159 158 159 162 164 164 161 163 169 171 170 159 140 129 132 126 120 128 141 149 150 143 131 143 145 171 173 169 182 170 132 127 138 132 123
118 146 183 236 227 177 220 143 167 226 214 225 216 184 184 190 220 221 209 153 154 176 168 151 179 123 227 179 171 162 223 185 196 230 120 201 191 213 189 234 201 234 234 187 215 211 220 226 203 179 156 153 156 154 157 158 160 166 168 167 170 171 152 143 150 149 132 128 135 135 145 139 114 116 121 117 127 168 192 159 140 139 141 139 144 140 135
107 259 252 225 301 266 220 356 166 237 194 210 215 218 189 206 211 223 166 154 161 122 69 32 55 111 206 141 220 176 224 179 185 194 177 210 205 230 228 248 218 211 253 183 188 228 218 176 151 160 170 156 155 154 157 165 160 167 171 166 161 150 143 145 151 149 140 144 150 156 150 124 124 132 128 138 152 132 135 126 117 111 121 138 134 141 147
303 239 251 228 204 242 151 190 196 203 200 215 211 217 183 207 180 191 189 136 138 121 132 170 185 148 167 140 179 208 220 147 170 208 198 199 192 223 218 233 234 181 222 233 201 192 177 175 165 167 168 169 166 166 167 162 166 166 165 161 163 155 150 153 155 153 153 158 157 151 139 143 155 148 154 137 108 107 113 108 131 125 132 141 120 132 149
195 220 231 220 203 244 269 344 358 265 249 262 224 241 152 195 190 191 152 122 144 163 188 158 129 158 190 208 204 192 89 121 220 168 204 232 192 210 224 204 218 228 203 205 202 193 176 180 181 170 166 169 174 178 172 162 157 158 159 158 161 153 152 158 159 161 156 152 151 140 146 148 143 142 134 111 100 108 129 152 195 119 139 148 104 119 140